TimePST,TemperatureF,Dew PointF,Humidity,Sea Level PressureIn,VisibilityMPH,Wind Direction,Wind SpeedMPH,Gust SpeedMPH,PrecipitationIn,Events,Conditions,WindDirDegrees,DateUTC
12:56 AM,48.0,43.0,83,29.99,6.0,SW,9.2,-,0.01,Rain,Light Rain,230,2012-02-13 08:56:00
1:56 AM,50.0,44.1,80,29.99,10.0,WNW,12.7,-,0.00,,Mostly Cloudy,290,2012-02-13 09:56:00
2:56 AM,50.0,41.0,71,29.99,10.0,WNW,19.6,28.8,N/A,,Mostly Cloudy,290,2012-02-13 10:56:00
3:56 AM,48.9,42.1,77,30.00,10.0,West,24.2,28.8,0.00,Rain,Light Rain,280,2012-02-13 11:56:00
4:56 AM,48.9,37.0,64,30.00,10.0,West,26.5,33.4,0.00,,Mostly Cloudy,280,2012-02-13 12:56:00
5:56 AM,48.0,39.0,71,30.01,9.0,WNW,17.3,26.5,0.00,Rain,Light Rain,290,2012-02-13 13:56:00
6:56 AM,48.9,39.0,69,29.99,10.0,WNW,19.6,28.8,0.01,,Mostly Cloudy,290,2012-02-13 14:56:00
7:56 AM,48.0,39.9,74,29.99,9.0,West,23.0,27.6,N/A,,Mostly Cloudy,280,2012-02-13 15:56:00
8:56 AM,48.9,39.9,71,29.98,10.0,WNW,24.2,28.8,0.00,,Overcast,290,2012-02-13 16:56:00
9:56 AM,48.9,39.9,71,29.97,10.0,West,31.1,39.1,0.00,Rain,Light Rain,270,2012-02-13 17:56:00
10:19 AM,48.2,42.8,82,29.95,4.0,West,24.2,41.4,0.01,Rain,Light Rain,270,2012-02-13 18:19:00
10:56 AM,48.9,43.0,80,29.94,5.0,West,26.5,38.0,0.02,Rain,Light Rain,260,2012-02-13 18:56:00
11:51 AM,51.8,44.6,76,29.93,7.0,WNW,24.2,32.2,0.04,Rain,Light Rain,290,2012-02-13 19:51:00
11:56 AM,51.1,44.1,77,29.93,7.0,WNW,21.9,28.8,0.04,,Overcast,300,2012-02-13 19:56:00
12:56 PM,52.0,43.0,71,29.92,10.0,WNW,23.0,34.5,N/A,,Mostly Cloudy,300,2012-02-13 20:56:00
1:56 PM,51.1,44.1,77,29.93,10.0,NW,12.7,23.0,0.01,,Overcast,310,2012-02-13 21:56:00
2:56 PM,52.0,44.1,74,29.95,10.0,WNW,18.4,-,0.00,Rain,Light Rain,300,2012-02-13 22:56:00
3:36 PM,50.0,42.8,76,29.96,10.0,North,12.7,-,0.00,Rain,Light Rain,360,2012-02-13 23:36:00
3:56 PM,51.1,43.0,74,29.95,10.0,WNW,3.5,-,0.01,Rain,Light Rain,300,2012-02-13 23:56:00
4:56 PM,52.0,44.1,74,29.96,10.0,WNW,18.4,-,0.00,,Mostly Cloudy,300,2012-02-14 00:56:00
5:56 PM,51.1,42.1,71,29.98,10.0,WNW,16.1,-,N/A,,Mostly Cloudy,290,2012-02-14 01:56:00
6:56 PM,50.0,41.0,71,29.98,10.0,WNW,12.7,-,N/A,,Scattered Clouds,300,2012-02-14 02:56:00
7:56 PM,48.9,42.1,77,30.00,10.0,West,6.9,-,N/A,,Mostly Cloudy,280,2012-02-14 03:56:00
8:56 PM,48.9,41.0,74,30.01,10.0,West,9.2,-,N/A,,Partly Cloudy,270,2012-02-14 04:56:00
9:56 PM,46.9,41.0,80,30.02,10.0,West,9.2,-,N/A,,Partly Cloudy,280,2012-02-14 05:56:00
10:56 PM,46.9,39.9,77,30.01,10.0,West,8.1,-,N/A,,Partly Cloudy,280,2012-02-14 06:56:00
11:56 PM,45.0,39.9,82,30.03,10.0,West,8.1,-,N/A,,Clear,270,2012-02-14 07:56:00